Regional Weather Roundup
Issued by NWS

Home | Current Version | Previous Version | Graphics & Text | Print | Product List | Glossary On
Versions: 1 2 3 4 5 6 7 8 9 10 11 12 13 14 15 16 17 18 19 20 21 22 23 24 25 26 27 28 29 30 31 32 33 34 35 36 37 38 39 40 41 42 43 44 45 46 47 48 49 50
000
ASUS43 KIND 111109
RWRIN

WEATHER ROUNDUP FOR INDIANA
NATIONAL WEATHER SERVICE INDIANAPOLIS IN
600 AM EST MON DEC 11 2017

NOTE: "FAIR" INDICATES FEW OR NO CLOUDS BELOW 12,000 FEET WITH NO
SIGNIFICANT WEATHER AND/OR OBSTRUCTIONS TO VISIBILITY.

* - STATION DOES NOT REPORT WEATHER SUCH AS PRECIPITATION OR FOG.

+ - STATION NOT QUALITY CONTROLLED BY THE NATIONAL WEATHER SERVICE.
    USE DATA WITH CAUTION...ESPECIALLY DEWPOINT AND RELATIVE
    HUMIDITY OBSERVATIONS.

INZ001>003-010>013-019-020-111200-
NORTHWEST INDIANA

CITY           SKY/WX    TMP DP  RH WIND       PRES   REMARKS
GARY /AIRPORT/ CLOUDY    27  19  74 CALM      30.04R
KNOX *+        CLOUDY    21  19  93 CALM      30.02S
LA PORTE +     CLOUDY    23  19  83 SW3       30.03R
MICHIGAN CITY+ CLOUDY    28  19  69 SW6       30.03R WCI  22
MONTICELLO +   CLOUDY    23  20  85 S3        30.04R
RENSSELAER +   CLOUDY    27  21  80 S3        30.03F
VALPARAISO     CLOUDY    26  20  77 CALM      30.02F

$$

LMZ046-743>745-111200-
SOUTHERN LAKE MICHIGAN

STATION/POSITION TIME  TEMP    WIND        PRES    WAVE
                       AIR SEA DIR/SP/G            HT
                 (UTC) (F)     (DEG/KT/KT) (MB)    (FT)
BURNS HARBOR     1040   28     210/  5/  9 1016.9R
MICHIGAN CITY    1040   27     190/ 10/ 12   N/A

$$

INZ004-005-014>016-021>024-111200-
NORTH CENTRAL INDIANA

CITY           SKY/WX    TMP DP  RH WIND       PRES   REMARKS
GOSHEN         CLOUDY    26  21  81 S6        30.00F WCI  19
LOGANSPORT +   CLOUDY    23  21  93 S5        30.05S WCI  17
PERU/GRISSOM   CLOUDY    22  21  96 S6        30.03F WCI  15
ROCHESTER +    CLOUDY    27  23  86 CALM      30.03F
SOUTH BEND     CLOUDY    25  21  85 SW8       30.02R WCI  16
WARSAW +       CLOUDY    27  21  80 CALM      30.01F

$$

INZ006>009-017-018-025>027-111200-
NORTHEAST INDIANA

CITY           SKY/WX    TMP DP  RH WIND       PRES   REMARKS
AUBURN +       CLOUDY    28  23  80 SW3       30.03S
FORT WAYNE     CLOUDY    23  20  88 SW8       30.04S WCI  14
HUNTINGTON +   CLOUDY    24  22  91 CALM      30.04S
KENDALLVILLE + CLOUDY    27  22  82 SW6       30.02R WCI  20

$$

INZ028-029-035-036-043>045-051>053-111200-
WEST CENTRAL INDIANA

CITY           SKY/WX    TMP DP  RH WIND       PRES   REMARKS
CRAWFORDSVL +  CLOUDY    24  22  93 S5          N/A  WCI  18
GREENCASTLE +  CLOUDY    25  21  86 CALM      30.07S
LAFAYETTE      CLOUDY    22  21  96 W3        30.07R
TERRE HAUTE    CLOUDY    26  21  81 CALM      30.09S

$$

INZ030>032-037>040-046>048-054>057-064-065-111200-
CENTRAL INDIANA

CITY           SKY/WX    TMP DP  RH WIND       PRES   REMARKS
FRANKFORT +    CLOUDY    26  22  87 S6        30.06S WCI  19
INDIANAPOLIS   MOCLDY    24  20  84 S5        30.06F WCI  18
-EAGLE CREEK   CLOUDY    24  20  84 S3        30.05F
KOKOMO +       CLOUDY    21  19  92 S5        30.05S WCI  15
MARION +       PTCLDY    19  17  92 S3        30.05F FOG
MT COMFORT *+  CLOUDY    19  19 100 S5        30.06F WCI  13
SHELBYVILLE    CLOUDY    21  17  84 SE6       30.06F WCI  13
ZIONSVILLE +   CLOUDY    20  19  95 CALM      30.06S

$$

INZ033-034-041-042-049-050-058-059-111200-
EAST CENTRAL INDIANA

CITY           SKY/WX    TMP DP  RH WIND       PRES   REMARKS
MUNCIE         CLOUDY    24  19  81 S5        30.05R WCI  18
RICHMOND +     CLOUDY    16  14  93 SW7       30.06S WCI   6

$$

INZ060-061-067>069-081>083-085>088-111200-
SOUTHWEST INDIANA

CITY           SKY/WX    TMP DP  RH WIND       PRES   REMARKS
EVANSVILLE     CLEAR     25  24  96 CALM      30.12S
HUNTINGBURG +  CLEAR     24  22  91 CALM      30.11F
WASHINGTON +   CLEAR     23  20  89 CALM      30.12R

$$

INZ062-063-066-070>080-084-089>092-111200-
SOUTH CENTRAL AND SOUTHEAST INDIANA

CITY           SKY/WX    TMP DP  RH WIND       PRES   REMARKS
BEDFORD +      CLEAR     25  21  86 CALM      30.09R
BLOOMINGTON    CLEAR     21  17  84 CALM      30.08S
MADISON *+     CLEAR     23  21  93 CALM      30.11S
NORTH VERNON + CLEAR     19  18  93 E3        30.09F
SEYMOUR +      PTCLDY    23  18  80 CALM      30.10S

$$





USA.gov is the U.S. government's official web portal to all federal, state and local government web resources and services.